570  
ASUS41 KPHI 192312  
RWRPHI  
 
REGIONAL WEATHER ROUNDUP  
NATIONAL WEATHER SERVICE MOUNT HOLLY NJ  
700 PM EDT MON APR 19 2021  
 
NOTE: "FAIR" INDICATES FEW OR NO CLOUDS BELOW 12,000 FEET WITH NO  
SIGNIFICANT WEATHER AND/OR S TO VISIBILITY
.  
 
* = STATION DOES NOT REPORT PRECIPITATION (E.G. RAIN, SNOW, ETC.)  
OR FOG.
 
 
NJZ015>026-200000-  
SOUTHERN NEW JERSEY  
 
CITY SKY/WX TMP DP RH WIND PRES REMARKS
 
POMONA MOCLDY 56 48 74 SW8 29.84F  
WILDWOOD* CLOUDY 53 50 89 SW5 29.86F  
MILLVILLE PTCLDY 56 45 66 VRB7 29.85S  
WRIGHTSTOWN MOCLDY 59 41 51 SW7 29.83R  
MOUNT HOLLY PTCLDY 61 38 42 SW6 29.84R  
TRENTON PTCLDY 58 40 51 SW9 29.82R  
 

 
NJZ001>014-200000-  
NORTHERN NEW JERSEY  
 
CITY SKY/WX TMP DP RH WIND PRES REMARKS
 
SUSSEX MOCLDY 54 45 71 CALM 29.82S  
ANDOVER* N/A 56 40 55 CALM 29.82S  
MORRISTOWN MOCLDY 59 43 55 NW18G30 29.82R  
NEWARK MOCLDY 62 42 47 S12 29.80S  
TETERBORO MOCLDY 60 42 51 S3 29.80S  
CALDWELL LGT RAIN 61 42 49 N14G21 29.82R  
SOMERVILLE CLOUDY 58 44 60 VRB3 29.80R  
ALLAIRE* CLOUDY 59 42 53 S8 29.84S  
TOMS RIVER* MOCLDY 59 45 59 W6 29.84S  
 

 
PAZ043-044-047-054-055-060>062-066>071-200000-  
EASTERN PENNSYLVANIA  
 
CITY SKY/WX TMP DP RH WIND PRES REMARKS
 
PHILADELPHIA MOCLDY 59 42 53 SW8 29.85R  
NORTH PHILA PTCLDY 60 40 47 SW7 29.84R  
BLUE BELL* N/A N/A N/A N/A MISG N/A  
DOYLESTOWN CLOUDY 59 41 51 SW8 29.82R  
QUAKERTOWN* CLEAR 57 43 58 S3 29.83R  
PERKASIE* FAIR 57 41 54 SW6 29.84R  
POTTSTOWN PTCLDY 54 46 74 S3 29.85R  
LANCASTER CLOUDY 58 43 57 SW8 29.84R  
COATESVILLE PTCLDY 55 43 62 CALM 29.86R  
WEST CHESTER MOCLDY 59 41 51 SW6 29.85R  
READING N/A 61 44 53 MISG 29.82R  
ALLENTOWN MOCLDY 59 41 51 CALM 29.82R  
QN CITY/ALNTWN FAIR 59 39 47 W5 29.84R  
MOUNT POCONO CLEAR 54 33 45 W8 29.81S  
HAZLETON CLOUDY 57 32 38 W5 29.85R  
LEHIGHTON CLOUDY 61 39 44 CALM 29.82S  
WILKES BARRE CLEAR 58 38 47 W3 29.82R  
 

 
DEZALL-MDZ008-012-015-019-020-200000-  
DELAWARE AND EASTERN MARYLAND  
 
CITY SKY/WX TMP DP RH WIND PRES REMARKS
 
WILMINGTON MOCLDY 59 43 55 S9 29.85R  
DOVER MOCLDY 55 47 73 SW7 29.85S  
CHESWOLD PTCLDY 57 46 67 S3 29.86S  
GEORGETOWN CLOUDY 55 48 77 CALM 29.86F  
EASTON PTCLDY 57 46 67 CALM 29.91R  
ABERDEEN CLEAR 57 46 67 SW8 29.85R  
PATUXENT PTCLDY 55 51 86 E3 29.87R  
OCEAN CITY CLOUDY 51 49 92 NW6 29.85R  
WALLOPS ISLAND MOCLDY 54 49 83 NE6 29.86R  
CAMBRIDGE CLEAR 55 48 76 CALM 29.88R  
SALISBURY MOCLDY 53 48 83 N3 29.86S  
 

 
PAZ001-021-NYZ056-072-MDZ011-DCZ001-200000-  
OTHER NEARBY LOCATIONS  
 
CITY SKY/WX TMP DP RH WIND PRES REMARKS
 
HARRISBURG MOCLDY 63 41 44 SE8 29.81S  
STATE COLLEGE PTCLDY 59 28 31 NW7 29.82R  
WILLIAMSPORT CLOUDY 60 39 45 E3 29.80S  
BINGHAMTON CLEAR 52 36 54 S3 29.81R  
NEW YORK CITY MOCLDY 61 40 45 SE3 29.83S  
BALTIMORE PTCLDY 59 42 53 SE9 29.85R  
WASHINGTON DC PTCLDY 60 46 59 S9 29.87R  
 

 
 
 
CLICK HERE TO GO TO PREVIOUS BULLETINS.

The Nexlab PA Page
The Nexlab NJ Page
The Nexlab DE Page
The Nexlab MD Page Main Text Page